This demonstration page uses our WeatherBlox Daily Observations layout. Learn more.

Left ArrowRight Arrow

Hourly Observations for February 10, 2022

Temp ( °F °C ) Dew Point ( °F °C ) Humidity (%) Winds ( mph kmh ) Pressure ( in mb ) Visibility ( mi km ) Precip ( " mm )
12:56 am 00:56 Clear 29 -1.7 19 -7.2 66 66 WNW 8 13 30.13 1020 10 16 0.00 0.00
1:56 am 01:56 Clear 28 -2.4 19 -7.3 69 69 NW 9 15 30.14 1021 10 16 0.00 0.00
2:56 am 02:56 Clear 28 -2.1 19 -7 69 69 WNW 10 17 30.15 1021 10 16 0.00 0.00
3:56 am 03:56 Clear 27 -2.8 19 -7.3 71 71 NW 10 17 30.14 1021 10 16 0.00 0.00
4:56 am 04:56 Clear 28 -2.4 19 -7.5 68 68 NW 10 17 30.15 1021 10 16 0.00 0.00
5:56 am 05:56 Clear 26 -3.6 18 -7.9 72 72 WNW 7 11 30.15 1021 10 16 0.00 0.00
6:56 am 06:56 Clear 24 -4.2 17 -8.2 74 74 NW 6 9 30.16 1021 10 16 0.00 0.00
7:56 am 07:56 Sunny 24 -4.7 17 -8.5 75 75 W 3 6 30.16 1022 9 14 0.00 0.00
8:56 am 08:56 Sunny 27 -3 19 -7.2 73 73 WNW 5 7 30.16 1021 10 16 0.00 0.00
9:56 am 09:56 Mostly Cloudy 31 -0.5 21 -6.3 65 65 WNW 5 7 30.13 1020 10 16 0.00 0.00
10:56 am 10:56 Mostly Cloudy 35 1.8 23 -5.1 61 61 SSW 6 9 30.09 1019 10 16 0.00 0.00
11:56 am 11:56 Mostly Cloudy 42 5.3 22 -5.7 45 45 SSW 8 13 30.03 1017 9 14 0.00 0.00
12:56 pm 12:56 Mostly Sunny 47 8.1 22 -5.7 37 37 SW 15 24 29.97 1015 10 16 0.00 0.00
1:56 pm 13:56 Mostly Cloudy 47 8.6 22 -5.6 36 36 SSW 17 28 29.90 1012 10 16 0.00 0.00
2:05 pm 14:05 Mostly Cloudy 48 9 21 -6 34 34 SW 20 31 29.89 1012 10 16 0.00 0.00
2:56 pm 14:56 Partly Cloudy 50 9.8 22 -5.3 34 34 SW 20 31 29.84 1011 9 14 0.00 0.00
3:56 pm 15:56 Mostly Sunny 51 10.7 25 -4.1 35 35 SW 18 30 29.78 1009 10 16 0.00 0.00
4:56 pm 16:56 Mostly Cloudy 53 11.6 27 -3 36 36 SW 18 30 29.75 1008 10 16 0.00 0.00
5:56 pm 17:56 Mostly Clear 51 10.8 28 -2.3 40 40 SW 14 22 29.70 1006 10 16 0.00 0.00
6:56 pm 18:56 Mostly Cloudy 50 10.1 29 -1.9 43 43 SSW 12 19 29.68 1005 10 16 0.00 0.00
7:56 pm 19:56 Cloudy with Light Showers 49 9.7 31 -0.8 48 48 SSW 10 17 29.65 1004 10 16 0.00 0.00
8:56 pm 20:56 Mostly Clear 52 11.1 30 -1.3 42 42 SW 12 19 29.61 1003 10 16 0.00 0.00
9:56 pm 21:56 undefined 53 11.4 32 -0.1 45 45 W 12 19 29.62 1003 10 16 0.00 0.00
10:56 pm 22:56 Mostly Cloudy with Light Showers 51 10.4 34 1 52 52 N 7 11 29.64 1004 10 16 0.00 0.00
11:56 pm 23:56 Cloudy with Showers 47 8.2 42 5.5 83 83 N 7 11 29.65 1004 8 13 0.03 0.76

Powered by AerisWeather